SCP
0 0 0 0 0 0 0 0 0 0 0 0 0 -0 -0 0 0 -0 0 -0 -0 -0 -0 -0 -0 -0 -0 -0 -0 -0 -0 -0 -0 -0 -0 -0 -0 -0 -0 -0 -0 -0 -0 -0 -0 -0 -0 -0 -0
0 0 0 0 0 0 0 0 0 0 0 0 0 0 0 0 0 0 -0 -0 -0 -0 -0 -0 -0 -0 -0 -0 -0 -0 -0 -0 -0 -0 -0 -0 -0 -0 -0 -0 -0 -0 -0 -0 -0 -0 -0 -0 -0
0 0 0 0 0 0 0 0 0 0 0 0 0 0 0 0 0 0 -0 -0 -0 -0 -0 -0 -0 -0 -0 -0 -0 -0 -0 -0 -0 -0 -0 -0 -0 -0 -0 -0 -0 -0 -0 -0 -0 -0 -0 -0 -0
0 0 0 0 0 -0 0 0 0 0 0 0 0 0 0 -0 -0 0 -0 -0 -0 -0 0 -0 -0 -0 -0 -0 -0 -0 -0 -0 -0 -0 -0 -0 -0 0 -0 -0 -0 -0 -0 -0 -0 -0 -0 -0 0
0 0 0 0 0 0 0 0 0 0 0 0 0 0 0 0 -0 -0 -0 -0 -0 -0 -0 -0 -0 -0 -0 -0 -0 -0 -0 -0 -0 -0 -0 0 0 0 0 -0 -0 -0 -0 -0 -0 -0 -0 0 0
0 0 0 0 0 0 0 0 0 0 0 0 -0 0 0 0 -0 -0 -0 -0 -0 -0 -0 -0 -0 -0 -0 -0 -0 -0 -0 0 0 0 0 0 0 0 0 0 0 -0 -0 -0 0 0 0 0 0
0 0 0 0 0 0 0 0 0 0 0 0 -0 -0 -0 -0 -0 -0 -0 -0 -0 -0 -0 0 0 0 0 0 0 -0 -0 -0 -0 -0 0 -0 0 0 0 0 0 0 -0 -0 0 0 0 0 0
0 0 0 0 0 0 0 0 0 0 0 0 -0 -0 -0 -0 -0 -0 -0 -0 -0 -0 -0 -0 0 -0 -0 -0 -0 -0 -0 -0 -0 0 0 0 0 0 0 0 0 0 -0 0 0 0 0 0 0
0 0 0 -0 0 0 0 0 0 0 0 0 0 -0 -0 -0 -0 -0 -0 -0 -0 -0 -0 -0 0 0 -0 -0 -0 -0 -0 -0 -0 -0 -0 0 -0 0 0 0 0 -0 0 0 0 0 0 0 0
0 0 0 -0 0 0 0 0 0 0 0 0 0 -0 -0 -0 -0 -0 -0 -0 0 0 0 -0 0 0 -0 0 0 0 0 0 0 0 0 0 0 0 0 0 0 0 0 0 0 0 0 0 0
0 0 0 0 0 0 0 0 0 0 0 0 -0 -0 -0 -0 -0 -0 -0 -0 -0 0 0 -0 -0 -0 -0 0 0 0 0 0 0 0 0 0 0 0 0 0 0 0 0 0 0 0 0 0 0
0 0 0 0 0 0 0 0 0 0 0 0 -0 -0 0 -0 -0 -0 -0 -0 -0 -0 -0 -0 -0 -0 0 0 0 0 0 0 0 0 0 0 0 0 0 0 0 0 0 0 0 0 0 0 0
0 0 0 0 0 0 0 0 0 0 0 0 0 0 0 0 0 -0 -0 0 0 0 0 -0 0 0 0 0 0 0 0 0 0 0 0 0 0 0 0 0 0 0 0 0 0 0 0 0 0
0 0 0 0 0 0 0 0 0 0 0 0 0 0 0 0 0 0 0 0 0 0 0 0 0 0 0 0 0 0 0 0 0 0 0 0 0 0 0 0 0 0 0 0 0 0 0 0 0
0 0 0 0 0 0 0 0 0 0 0 0 0 0 0 0 0 0 0 0 0 0 0 0 0 0 0 0 0 0 0 0 0 0 0 0 0 0 0 0 0 0 0 0 0 0 0 0 0
0 0 0 0 0 0 0 0 0 0 0 0 0 0 0 0 0 0 0 0 0 0 0 0 0 0 0 0 0 0 0 0 0 0 0 0 0 0 0 0 0 0 0 0 0 0 0 0 0
0 0 0 0 0 0 0 0 0 0 0 0 0 0 0 0 0 0 0 0 0 0 0 0 0 0 0 0 0 0 0 0 0 0 0 0 0 0 0 0 0 0 0 0 0 0 0 0 0
0 0 0 0 0 0 0 0 0 0 0 0 0 0 0 0 0 0 0 0 0 0 0 0 0 0 0 0 0 0 0 0 0 0 0 0 0 0 0 0 0 0 0 0 0 0 0 0 0
0 0 0 0 0 0 0 0 0 0 0 0 0 0 0 0 0 0 0 0 0 0 0 0 0 0 0 0 0 0 0 0 0 0 0 0 0 0 0 0 0 0 0 0 0 0 0 0 0
0 0 0 0 0 0 0 0 0 0 0 0 0 0 0 0 0 0 0 0 0 0 0 0 0 0 0 0 0 0 0 0 0 0 0 0 0 0 0 0 0 0 0 0 0 0 0 0 0
0 0 0 0 0 0 0 0 0 0 0 0 0 0 0 0 0 0 0 0 0 0 0 0 0 0 0 0 0 0 0 0 0 0 0 0 0 0 0 0 0 0 0 0 0 0 0 0 0
0 0 0 0 0 0 0 0 0 0 0 0 0 0 0 0 0 0 0 0 0 0 0 0 0 0 0 0 0 0 0 0 0 0 0 0 0 0 0 0 0 0 0 0 0 0 0 0 0
0 0 0 0 0 0 0 0 0 0 0 0 0 0 0 0 0 0 0 0 0 0 0 0 0 0 0 0 0 0 0 0 0 0 0 0 0 0 0 0 0 0 0 0 0 0 0 0 0
0 0 0 0 0 0 0 0 0 0 0 0 0 0 0 0 0 0 0 0 0 0 0 0 0 0 0 0 0 0 0 0 0 0 0 0 0 0 0 0 0 0 0 0 0 0 0 0 0
0 0 0 0 0 0 0 0 0 0 0 0 0 0 0 0 0 0 0 0 0 0 0 0 0 0 0 0 0 0 0 0 0 0 0 0 0 0 0 0 0 0 0 0 0 0 0 0 0
0 0 0 0 0 0 0 0 0 0 0 0 0 0 0 0 0 0 0 0 0 0 0 0 0 0 0 0 0 0 0 0 0 0 0 0 0 0 0 0 0 0 0 0 0 0 0 0 0
0 0 0 0 0 0 0 0 0 0 0 0 0 0 0 0 0 0 0 0 0 0 0 0 0 0 0 0 0 0 0 0 0 0 0 0 0 0 0 0 0 0 0 0 0 0 0 0 0
0 0 0 0 0 0 0 0 0 0 0 0 0 0 0 0 0 0 0 0 0 0 0 0 0 0 0 0 0 0 0 0 0 0 0 0 0 0 0 0 0 0 0 0 0 0 0 0 0
0 0 0 0 0 0 0 0 0 0 0 0 0 0 0 0 0 0 0 0 0 0 0 0 0 0 0 0 0 0 0 0 0 0 0 0 0 0 0 0 0 0 0 0 0 0 0 0 0
0 0 0 0 0 0 0 0 0 0 0 0 0 0 0 0 0 0 0 0 0 0 0 0 0 0 0 0 0 0 0 0 0 0 0 0 0 0 0 0 0 0 0 0 0 0 0 0 0
Wind_Speed_500mb
8 15 17 6 6 3 7 10 8 10 9 22 28 26 23 18 6 8 41 27 25 28 31 33 34 36 33 29 23 21 22 23 21 19 17 16 15 12 8 3 3 8 17 10 12 15 19 20 21
14 19 3 5 5 2 9 4 11 9 22 30 29 25 17 7 27 42 44 29 22 28 29 33 34 35 32 27 19 20 19 18 15 12 11 10 10 9 7 6 5 5 1 10 12 13 15 16 17
12 4 6 5 5 6 7 6 15 19 23 19 10 21 11 15 37 45 37 34 31 30 26 29 32 34 31 27 22 18 16 15 11 6 5 5 5 4 5 4 4 5 4 3 8 7 8 11 13
4 3 9 2 4 19 8 14 31 13 17 15 31 16 16 13 41 41 43 36 31 32 26 24 28 29 29 26 21 18 15 14 9 8 8 9 8 6 4 3 4 3 3 2 3 8 8 9 9
9 5 5 3 7 10 6 37 29 11 14 15 17 9 16 28 24 48 47 37 24 27 27 23 24 26 25 23 19 15 14 10 6 7 8 9 8 6 5 5 4 2 2 2 6 10 11 10 8
5 5 2 7 3 5 5 40 37 18 26 24 29 19 12 20 30 56 46 36 23 24 28 25 25 25 26 24 22 17 13 7 2 4 6 8 9 7 5 4 4 4 4 4 6 9 12 14 14
2 2 8 8 5 4 11 38 26 30 25 14 37 11 30 31 51 47 40 31 21 27 29 28 28 28 27 27 25 21 18 10 4 3 5 6 5 5 3 2 3 4 5 7 8 10 11 12 13
9 1 8 5 9 9 19 23 28 36 10 32 15 13 18 50 48 46 36 25 19 30 30 27 24 22 21 20 20 18 16 13 9 6 5 6 4 2 3 5 6 7 9 10 11 13 15 16 18
9 3 9 8 8 9 26 9 17 27 28 14 8 22 35 56 50 49 37 27 23 26 29 24 21 18 17 16 15 15 14 12 11 8 5 4 2 4 3 5 7 11 15 17 18 20 21 23 23
11 7 13 2 4 10 25 27 26 16 26 16 31 32 66 57 57 57 45 33 25 20 22 17 20 18 21 18 12 11 10 9 8 7 6 6 5 5 8 6 10 15 18 21 22 24 26 27 27
11 8 8 13 11 11 32 23 16 43 5 27 60 68 62 57 55 53 45 36 30 22 25 18 19 14 13 12 11 8 8 7 6 6 5 6 8 10 14 16 19 19 20 21 23 25 27 28 29
10 15 6 11 6 1 25 31 17 28 13 37 46 57 55 61 55 52 43 41 37 29 26 27 23 19 17 15 11 11 9 8 6 7 8 9 10 12 14 16 17 20 22 23 26 28 30 33 35
10 5 8 14 11 9 31 20 17 15 22 47 52 50 53 55 49 41 35 30 32 31 28 27 26 24 20 17 12 9 8 7 9 12 13 15 17 18 18 18 20 23 25 28 30 33 36 38 39
32 16 11 9 5 4 16 10 22 18 47 52 52 49 50 50 48 42 43 40 37 33 29 24 23 22 20 17 17 15 14 15 17 18 19 21 22 22 24 23 23 25 28 32 36 39 41 43 45
23 8 4 8 9 1 31 6 9 39 53 53 46 46 44 41 39 37 35 32 28 29 26 25 21 20 20 19 19 20 20 22 23 24 25 27 28 29 29 30 30 30 32 36 39 43 45 47 46
9 2 6 5 7 3 7 12 10 41 50 45 44 44 41 38 32 28 28 27 25 25 28 25 23 23 24 24 25 26 27 27 29 30 31 33 35 35 36 37 38 38 39 40 42 44 44 50 55
7 12 11 1 9 6 5 4 7 33 43 41 43 47 44 39 36 30 24 22 23 22 19 20 23 26 26 28 32 33 34 35 34 35 37 38 39 40 43 44 43 42 42 42 44 47 50 54 58
10 3 5 11 7 0 10 7 3 15 27 26 39 47 46 41 36 29 25 23 24 21 20 21 24 27 29 31 33 34 40 43 43 45 47 46 46 46 47 48 46 45 45 44 45 50 53 57 62
3 1 7 2 8 10 10 10 10 11 14 19 27 40 38 34 26 19 20 24 26 27 30 32 33 28 30 34 41 43 42 44 47 49 50 50 49 49 51 52 52 52 50 48 50 55 57 58 60
20 12 1 8 5 6 9 4 4 12 9 11 15 18 22 22 21 22 23 25 29 31 32 33 33 35 37 41 46 48 49 47 49 47 43 43 43 47 54 58 59 56 50 48 49 52 54 53 47
13 23 6 7 10 7 4 11 5 9 14 17 13 14 11 7 13 20 20 22 23 25 27 28 32 37 40 41 42 47 48 46 42 38 37 39 43 45 42 42 42 44 47 48 48 48 47 44 40
11 11 14 2 6 3 7 5 9 10 15 18 32 28 14 18 19 21 20 19 23 23 23 23 24 24 28 30 32 35 36 37 36 31 28 30 33 36 37 39 42 43 44 44 45 45 42 36 37
12 25 11 11 8 4 5 6 12 4 5 8 17 14 26 22 12 5 2 3 3 3 5 9 11 11 13 14 17 20 20 22 24 25 29 32 33 36 35 34 36 37 39 39 39 38 38 30 33
19 23 17 10 6 2 10 7 9 9 16 10 18 31 26 17 16 18 22 25 27 27 25 22 19 18 15 11 8 9 11 13 17 20 21 24 27 28 31 34 35 35 36 36 36 35 37 36 35
28 14 6 6 2 8 3 6 15 8 7 17 28 34 30 26 34 37 35 34 32 29 27 26 25 22 19 16 12 8 7 8 11 15 18 22 26 29 33 37 38 37 38 38 38 40 41 41 42
13 8 10 13 8 6 4 11 10 3 15 38 39 39 33 40 40 38 34 32 29 26 23 21 20 19 17 14 13 12 12 12 14 17 21 23 25 27 30 32 34 38 39 41 43 44 45 47 49
11 9 5 11 7 6 6 7 15 12 11 31 38 36 40 44 40 35 30 27 25 24 21 17 14 12 12 13 15 16 17 18 20 21 24 27 29 31 34 37 37 39 41 44 47 49 49 51 52
9 17 5 5 8 5 7 6 8 9 14 13 17 30 42 44 38 29 23 18 20 20 14 10 11 13 16 18 19 20 21 22 24 25 28 30 32 35 38 41 43 45 46 48 52 53 54 58 56
9 7 5 9 7 8 7 9 3 5 9 18 28 36 49 47 35 18 12 13 14 17 16 14 14 17 20 22 22 22 22 23 25 27 30 33 35 37 40 42 44 46 47 48 52 52 54 57 58
3 9 7 9 8 2 6 7 3 6 10 34 24 28 37 35 24 10 3 3 8 13 11 14 16 18 18 19 18 17 18 21 25 29 33 38 42 45 49 52 54 55 55 56 58 60 59 61 61
Wind_Direction_500mb
37 120 134 107 46 87 251 281 129 99 57 82 84 89 97 73 55 140 148 172 170 151 151 149 150 148 147 142 137 135 138 135 133 134 137 143 151 154 158 171 347 10 13 56 68 65 61 61 64
137 125 112 301 98 304 287 206 97 97 117 97 79 120 47 85 108 132 161 181 169 160 152 151 151 153 153 153 145 139 141 149 155 158 164 173 176 186 200 228 255 264 253 359 62 56 64 66 66
129 102 309 158 191 254 227 113 124 112 107 102 93 75 78 110 140 139 160 177 167 158 150 152 154 155 156 157 150 145 132 130 124 130 158 171 170 187 201 216 249 269 251 268 8 65 68 59 63
53 184 250 189 77 270 236 160 126 112 98 95 120 73 89 171 140 155 168 177 173 158 148 152 156 160 162 154 151 146 130 122 94 101 122 137 138 140 150 131 97 123 146 214 342 34 54 50 36
330 252 284 234 220 252 91 137 128 114 125 120 115 109 90 144 147 157 168 178 176 154 147 147 154 163 165 166 161 154 140 126 86 85 113 126 123 120 124 126 121 99 43 312 308 333 355 5 2
283 240 299 256 202 186 140 141 138 131 143 121 105 102 107 147 155 157 168 173 180 160 144 144 150 161 168 171 173 176 173 163 114 106 141 136 123 112 104 87 66 45 10 336 323 323 335 341 343
223 37 246 265 233 255 171 148 135 132 134 150 137 103 142 156 155 164 170 174 183 163 152 150 153 161 169 175 180 182 184 194 185 151 163 141 126 116 102 61 31 13 2 350 337 331 328 324 324
248 289 283 244 187 236 161 136 143 132 141 133 135 155 174 166 159 165 171 177 174 161 160 158 155 159 164 173 182 189 192 198 201 197 167 147 128 74 36 359 344 334 330 328 325 319 317 317 317
268 12 262 248 200 222 155 114 87 135 130 101 104 164 168 161 156 161 171 177 166 165 163 162 163 161 164 171 181 193 199 206 211 222 229 217 244 304 309 339 328 324 319 315 313 311 311 310 310
181 178 243 161 328 208 167 139 126 126 116 87 104 128 150 160 160 163 174 180 178 170 172 170 169 170 182 176 182 197 205 213 221 237 252 266 276 300 297 331 318 317 314 311 309 308 307 307 305
213 209 287 284 346 185 152 136 130 139 166 166 145 148 158 163 165 169 176 183 189 181 180 193 190 186 184 160 168 194 213 229 238 256 273 288 306 315 323 329 325 316 313 316 315 315 314 310 309
243 234 216 294 334 30 154 148 154 167 194 178 172 162 164 167 172 174 178 181 191 195 189 191 205 204 200 211 194 192 193 210 228 246 266 283 291 301 310 306 303 314 317 320 317 315 312 312 312
245 264 248 262 285 295 158 156 142 122 151 170 165 166 167 168 174 178 179 186 190 194 192 197 204 207 206 213 220 239 252 267 272 277 279 282 287 291 291 295 301 307 307 309 308 307 307 306 304
310 282 214 243 221 297 138 121 136 145 147 154 161 165 167 171 174 180 185 192 198 201 204 203 208 215 216 223 238 243 256 271 274 276 279 278 278 280 285 287 293 297 301 303 304 304 303 301 298
292 305 182 187 200 109 119 48 138 153 156 157 162 164 171 177 179 186 185 191 199 201 206 217 219 223 232 241 242 251 261 266 275 282 281 284 283 280 281 281 285 291 294 297 298 300 297 295 294
282 279 156 274 230 131 99 208 184 172 155 160 166 171 176 183 185 186 192 200 210 224 223 225 232 239 244 250 257 261 265 270 276 278 281 283 283 280 278 278 281 285 287 289 291 294 279 284 291
324 195 171 155 305 142 115 187 143 173 160 168 176 179 180 182 188 192 195 208 221 231 233 237 248 254 262 263 260 261 265 268 272 275 278 279 278 277 277 278 280 280 281 286 290 290 288 289 286
188 305 129 134 307 261 112 157 132 140 170 172 186 182 178 178 179 186 201 219 225 216 223 243 258 271 273 274 269 266 266 266 268 272 276 276 275 275 274 276 277 278 279 286 288 286 285 284 286
6 194 86 350 2 30 171 157 180 170 148 123 120 151 149 151 152 165 207 224 219 217 225 234 241 243 248 260 270 272 271 272 269 269 271 271 271 269 271 276 279 280 283 287 291 291 289 289 287
193 182 282 268 26 73 32 107 173 169 172 152 132 136 145 148 155 171 178 185 196 214 225 235 243 244 248 255 261 266 269 269 271 271 270 270 268 265 266 270 274 276 277 283 288 289 291 293 295
171 202 161 23 332 51 12 335 247 248 179 184 211 194 186 148 168 196 195 202 209 224 237 249 262 269 269 270 265 262 266 270 271 271 271 270 271 278 279 278 276 277 280 286 290 293 296 300 305
142 157 116 152 55 95 36 267 268 235 222 195 195 214 208 237 214 217 231 247 255 263 274 277 282 281 277 272 269 266 267 270 273 275 274 275 281 286 283 280 279 281 286 291 295 298 298 286 282
149 136 126 173 129 102 200 163 271 47 123 213 208 187 150 153 164 166 186 212 251 285 321 337 334 332 318 295 280 276 269 266 268 267 271 273 276 283 289 292 294 295 294 295 299 303 303 293 288
127 100 54 34 54 142 250 140 280 182 195 129 139 137 125 120 116 109 96 89 82 73 66 59 48 39 27 9 325 297 288 290 289 288 288 292 295 295 296 297 301 304 303 303 303 305 307 306 292
123 123 84 24 14 209 290 163 246 218 117 156 152 134 124 121 116 107 100 89 82 73 64 56 48 41 35 30 19 8 343 330 312 309 308 310 307 306 304 305 308 308 305 303 304 304 305 303 300
176 116 155 165 179 222 7 211 258 300 167 152 144 131 127 128 121 111 101 92 81 68 52 38 29 24 20 13 8 360 355 347 330 322 322 319 316 315 312 311 313 310 307 304 302 301 300 298 297
183 174 189 104 39 105 208 269 323 110 61 120 131 141 142 141 131 114 102 86 67 53 46 29 11 355 348 348 350 343 336 330 322 319 316 313 312 309 307 308 307 303 302 301 299 299 300 298 298
199 141 104 355 128 177 265 202 220 155 178 170 150 158 158 154 143 125 98 71 40 27 17 0 349 349 348 343 336 330 325 321 319 319 318 317 316 314 312 309 308 306 304 303 301 300 301 299 301
143 173 125 113 123 144 149 254 267 332 227 178 176 165 164 163 163 152 68 36 4 351 335 327 329 333 330 325 322 320 322 327 332 335 334 331 328 325 322 321 320 319 317 314 310 309 306 303 303
226 158 125 127 234 173 134 258 64 332 67 129 117 156 159 167 174 185 341 327 299 304 299 306 313 313 313 314 319 329 338 338 335 333 330 326 324 322 320 319 317 315 313 312 311 310 310 310 309
Wind_Speed_850mb
8 15 17 6 6 3 7 10 8 10 9 22 28 26 23 18 6 8 41 27 25 28 31 33 34 36 33 29 23 21 22 23 21 19 17 16 15 12 8 3 3 8 17 10 12 15 19 20 21
14 19 3 5 5 2 9 4 11 9 22 30 29 25 17 7 27 42 44 29 22 28 29 33 34 35 32 27 19 20 19 18 15 12 11 10 10 9 7 6 5 5 1 10 12 13 15 16 17
12 4 6 5 5 6 7 6 15 19 23 19 10 21 11 15 37 45 37 34 31 30 26 29 32 34 31 27 22 18 16 15 11 6 5 5 5 4 5 4 4 5 4 3 8 7 8 11 13
4 3 9 2 4 19 8 14 31 13 17 15 31 16 16 13 41 41 43 36 31 32 26 24 28 29 29 26 21 18 15 14 9 8 8 9 8 6 4 3 4 3 3 2 3 8 8 9 9
9 5 5 3 7 10 6 37 29 11 14 15 17 9 16 28 24 48 47 37 24 27 27 23 24 26 25 23 19 15 14 10 6 7 8 9 8 6 5 5 4 2 2 2 6 10 11 10 8
5 5 2 7 3 5 5 40 37 18 26 24 29 19 12 20 30 56 46 36 23 24 28 25 25 25 26 24 22 17 13 7 2 4 6 8 9 7 5 4 4 4 4 4 6 9 12 14 14
2 2 8 8 5 4 11 38 26 30 25 14 37 11 30 31 51 47 40 31 21 27 29 28 28 28 27 27 25 21 18 10 4 3 5 6 5 5 3 2 3 4 5 7 8 10 11 12 13
9 1 8 5 9 9 19 23 28 36 10 32 15 13 18 50 48 46 36 25 19 30 30 27 24 22 21 20 20 18 16 13 9 6 5 6 4 2 3 5 6 7 9 10 11 13 15 16 18
9 3 9 8 8 9 26 9 17 27 28 14 8 22 35 56 50 49 37 27 23 26 29 24 21 18 17 16 15 15 14 12 11 8 5 4 2 4 3 5 7 11 15 17 18 20 21 23 23
11 7 13 2 4 10 25 27 26 16 26 16 31 32 66 57 57 57 45 33 25 20 22 17 20 18 21 18 12 11 10 9 8 7 6 6 5 5 8 6 10 15 18 21 22 24 26 27 27
11 8 8 13 11 11 32 23 16 43 5 27 60 68 62 57 55 53 45 36 30 22 25 18 19 14 13 12 11 8 8 7 6 6 5 6 8 10 14 16 19 19 20 21 23 25 27 28 29
10 15 6 11 6 1 25 31 17 28 13 37 46 57 55 61 55 52 43 41 37 29 26 27 23 19 17 15 11 11 9 8 6 7 8 9 10 12 14 16 17 20 22 23 26 28 30 33 35
10 5 8 14 11 9 31 20 17 15 22 47 52 50 53 55 49 41 35 30 32 31 28 27 26 24 20 17 12 9 8 7 9 12 13 15 17 18 18 18 20 23 25 28 30 33 36 38 39
32 16 11 9 5 4 16 10 22 18 47 52 52 49 50 50 48 42 43 40 37 33 29 24 23 22 20 17 17 15 14 15 17 18 19 21 22 22 24 23 23 25 28 32 36 39 41 43 45
23 8 4 8 9 1 31 6 9 39 53 53 46 46 44 41 39 37 35 32 28 29 26 25 21 20 20 19 19 20 20 22 23 24 25 27 28 29 29 30 30 30 32 36 39 43 45 47 46
9 2 6 5 7 3 7 12 10 41 50 45 44 44 41 38 32 28 28 27 25 25 28 25 23 23 24 24 25 26 27 27 29 30 31 33 35 35 36 37 38 38 39 40 42 44 44 50 55
7 12 11 1 9 6 5 4 7 33 43 41 43 47 44 39 36 30 24 22 23 22 19 20 23 26 26 28 32 33 34 35 34 35 37 38 39 40 43 44 43 42 42 42 44 47 50 54 58
10 3 5 11 7 0 10 7 3 15 27 26 39 47 46 41 36 29 25 23 24 21 20 21 24 27 29 31 33 34 40 43 43 45 47 46 46 46 47 48 46 45 45 44 45 50 53 57 62
3 1 7 2 8 10 10 10 10 11 14 19 27 40 38 34 26 19 20 24 26 27 30 32 33 28 30 34 41 43 42 44 47 49 50 50 49 49 51 52 52 52 50 48 50 55 57 58 60
20 12 1 8 5 6 9 4 4 12 9 11 15 18 22 22 21 22 23 25 29 31 32 33 33 35 37 41 46 48 49 47 49 47 43 43 43 47 54 58 59 56 50 48 49 52 54 53 47
13 23 6 7 10 7 4 11 5 9 14 17 13 14 11 7 13 20 20 22 23 25 27 28 32 37 40 41 42 47 48 46 42 38 37 39 43 45 42 42 42 44 47 48 48 48 47 44 40
11 11 14 2 6 3 7 5 9 10 15 18 32 28 14 18 19 21 20 19 23 23 23 23 24 24 28 30 32 35 36 37 36 31 28 30 33 36 37 39 42 43 44 44 45 45 42 36 37
12 25 11 11 8 4 5 6 12 4 5 8 17 14 26 22 12 5 2 3 3 3 5 9 11 11 13 14 17 20 20 22 24 25 29 32 33 36 35 34 36 37 39 39 39 38 38 30 33
19 23 17 10 6 2 10 7 9 9 16 10 18 31 26 17 16 18 22 25 27 27 25 22 19 18 15 11 8 9 11 13 17 20 21 24 27 28 31 34 35 35 36 36 36 35 37 36 35
28 14 6 6 2 8 3 6 15 8 7 17 28 34 30 26 34 37 35 34 32 29 27 26 25 22 19 16 12 8 7 8 11 15 18 22 26 29 33 37 38 37 38 38 38 40 41 41 42
13 8 10 13 8 6 4 11 10 3 15 38 39 39 33 40 40 38 34 32 29 26 23 21 20 19 17 14 13 12 12 12 14 17 21 23 25 27 30 32 34 38 39 41 43 44 45 47 49
11 9 5 11 7 6 6 7 15 12 11 31 38 36 40 44 40 35 30 27 25 24 21 17 14 12 12 13 15 16 17 18 20 21 24 27 29 31 34 37 37 39 41 44 47 49 49 51 52
9 17 5 5 8 5 7 6 8 9 14 13 17 30 42 44 38 29 23 18 20 20 14 10 11 13 16 18 19 20 21 22 24 25 28 30 32 35 38 41 43 45 46 48 52 53 54 58 56
9 7 5 9 7 8 7 9 3 5 9 18 28 36 49 47 35 18 12 13 14 17 16 14 14 17 20 22 22 22 22 23 25 27 30 33 35 37 40 42 44 46 47 48 52 52 54 57 58
3 9 7 9 8 2 6 7 3 6 10 34 24 28 37 35 24 10 3 3 8 13 11 14 16 18 18 19 18 17 18 21 25 29 33 38 42 45 49 52 54 55 55 56 58 60 59 61 61
Wind_Direction_850mb
37 120 134 107 46 87 251 281 129 99 57 82 84 89 97 73 55 140 148 172 170 151 151 149 150 148 147 142 137 135 138 135 133 134 137 143 151 154 158 171 347 10 13 56 68 65 61 61 64
137 125 112 301 98 304 287 206 97 97 117 97 79 120 47 85 108 132 161 181 169 160 152 151 151 153 153 153 145 139 141 149 155 158 164 173 176 186 200 228 255 264 253 359 62 56 64 66 66
129 102 309 158 191 254 227 113 124 112 107 102 93 75 78 110 140 139 160 177 167 158 150 152 154 155 156 157 150 145 132 130 124 130 158 171 170 187 201 216 249 269 251 268 8 65 68 59 63
53 184 250 189 77 270 236 160 126 112 98 95 120 73 89 171 140 155 168 177 173 158 148 152 156 160 162 154 151 146 130 122 94 101 122 137 138 140 150 131 97 123 146 214 342 34 54 50 36
330 252 284 234 220 252 91 137 128 114 125 120 115 109 90 144 147 157 168 178 176 154 147 147 154 163 165 166 161 154 140 126 86 85 113 126 123 120 124 126 121 99 43 312 308 333 355 5 2
283 240 299 256 202 186 140 141 138 131 143 121 105 102 107 147 155 157 168 173 180 160 144 144 150 161 168 171 173 176 173 163 114 106 141 136 123 112 104 87 66 45 10 336 323 323 335 341 343
223 37 246 265 233 255 171 148 135 132 134 150 137 103 142 156 155 164 170 174 183 163 152 150 153 161 169 175 180 182 184 194 185 151 163 141 126 116 102 61 31 13 2 350 337 331 328 324 324
248 289 283 244 187 236 161 136 143 132 141 133 135 155 174 166 159 165 171 177 174 161 160 158 155 159 164 173 182 189 192 198 201 197 167 147 128 74 36 359 344 334 330 328 325 319 317 317 317
268 12 262 248 200 222 155 114 87 135 130 101 104 164 168 161 156 161 171 177 166 165 163 162 163 161 164 171 181 193 199 206 211 222 229 217 244 304 309 339 328 324 319 315 313 311 311 310 310
181 178 243 161 328 208 167 139 126 126 116 87 104 128 150 160 160 163 174 180 178 170 172 170 169 170 182 176 182 197 205 213 221 237 252 266 276 300 297 331 318 317 314 311 309 308 307 307 305
213 209 287 284 346 185 152 136 130 139 166 166 145 148 158 163 165 169 176 183 189 181 180 193 190 186 184 160 168 194 213 229 238 256 273 288 306 315 323 329 325 316 313 316 315 315 314 310 309
243 234 216 294 334 30 154 148 154 167 194 178 172 162 164 167 172 174 178 181 191 195 189 191 205 204 200 211 194 192 193 210 228 246 266 283 291 301 310 306 303 314 317 320 317 315 312 312 312
245 264 248 262 285 295 158 156 142 122 151 170 165 166 167 168 174 178 179 186 190 194 192 197 204 207 206 213 220 239 252 267 272 277 279 282 287 291 291 295 301 307 307 309 308 307 307 306 304
310 282 214 243 221 297 138 121 136 145 147 154 161 165 167 171 174 180 185 192 198 201 204 203 208 215 216 223 238 243 256 271 274 276 279 278 278 280 285 287 293 297 301 303 304 304 303 301 298
292 305 182 187 200 109 119 48 138 153 156 157 162 164 171 177 179 186 185 191 199 201 206 217 219 223 232 241 242 251 261 266 275 282 281 284 283 280 281 281 285 291 294 297 298 300 297 295 294
282 279 156 274 230 131 99 208 184 172 155 160 166 171 176 183 185 186 192 200 210 224 223 225 232 239 244 250 257 261 265 270 276 278 281 283 283 280 278 278 281 285 287 289 291 294 279 284 291
324 195 171 155 305 142 115 187 143 173 160 168 176 179 180 182 188 192 195 208 221 231 233 237 248 254 262 263 260 261 265 268 272 275 278 279 278 277 277 278 280 280 281 286 290 290 288 289 286
188 305 129 134 307 261 112 157 132 140 170 172 186 182 178 178 179 186 201 219 225 216 223 243 258 271 273 274 269 266 266 266 268 272 276 276 275 275 274 276 277 278 279 286 288 286 285 284 286
6 194 86 350 2 30 171 157 180 170 148 123 120 151 149 151 152 165 207 224 219 217 225 234 241 243 248 260 270 272 271 272 269 269 271 271 271 269 271 276 279 280 283 287 291 291 289 289 287
193 182 282 268 26 73 32 107 173 169 172 152 132 136 145 148 155 171 178 185 196 214 225 235 243 244 248 255 261 266 269 269 271 271 270 270 268 265 266 270 274 276 277 283 288 289 291 293 295
171 202 161 23 332 51 12 335 247 248 179 184 211 194 186 148 168 196 195 202 209 224 237 249 262 269 269 270 265 262 266 270 271 271 271 270 271 278 279 278 276 277 280 286 290 293 296 300 305
142 157 116 152 55 95 36 267 268 235 222 195 195 214 208 237 214 217 231 247 255 263 274 277 282 281 277 272 269 266 267 270 273 275 274 275 281 286 283 280 279 281 286 291 295 298 298 286 282
149 136 126 173 129 102 200 163 271 47 123 213 208 187 150 153 164 166 186 212 251 285 321 337 334 332 318 295 280 276 269 266 268 267 271 273 276 283 289 292 294 295 294 295 299 303 303 293 288
127 100 54 34 54 142 250 140 280 182 195 129 139 137 125 120 116 109 96 89 82 73 66 59 48 39 27 9 325 297 288 290 289 288 288 292 295 295 296 297 301 304 303 303 303 305 307 306 292
123 123 84 24 14 209 290 163 246 218 117 156 152 134 124 121 116 107 100 89 82 73 64 56 48 41 35 30 19 8 343 330 312 309 308 310 307 306 304 305 308 308 305 303 304 304 305 303 300
176 116 155 165 179 222 7 211 258 300 167 152 144 131 127 128 121 111 101 92 81 68 52 38 29 24 20 13 8 360 355 347 330 322 322 319 316 315 312 311 313 310 307 304 302 301 300 298 297
183 174 189 104 39 105 208 269 323 110 61 120 131 141 142 141 131 114 102 86 67 53 46 29 11 355 348 348 350 343 336 330 322 319 316 313 312 309 307 308 307 303 302 301 299 299 300 298 298
199 141 104 355 128 177 265 202 220 155 178 170 150 158 158 154 143 125 98 71 40 27 17 0 349 349 348 343 336 330 325 321 319 319 318 317 316 314 312 309 308 306 304 303 301 300 301 299 301
143 173 125 113 123 144 149 254 267 332 227 178 176 165 164 163 163 152 68 36 4 351 335 327 329 333 330 325 322 320 322 327 332 335 334 331 328 325 322 321 320 319 317 314 310 309 306 303 303
226 158 125 127 234 173 134 258 64 332 67 129 117 156 159 167 174 185 341 327 299 304 299 306 313 313 313 314 319 329 338 338 335 333 330 326 324 322 320 319 317 315 313 312 311 310 310 310 309